Flag for Poland Weather past 2 weeks in Lódz, Poland

Now
46 °F

Overcast.


Feels Like: 43 °F
Forecast: 32 / 55 °F
Wind: 6 mph from Northwest

Location: Lodz


UV Index: 3 (Moderate)

Visibility: 15 mi


Pressure: 30.32 "Hg

Humidity: 67%

Dew point: 36 °F

Location of LódzLocation

Historic Weather in Lódz

°F

Lódz temperature yesterday

Maximum temperature yesterday: 52 °F (at 4:00 PM)
Minimum temperature yesterday: 38 °F (at 9:00 AM)
Average temperature yesterday: 43 °F

Past Weeks' High & Low Weather Summary

 TemperatureHumidityPressure
High71 °F (Apr 8, 3:00 PM)99% (Apr 11, 9:00 AM)30.33 "Hg (Apr 11, 9:00 AM)
Low30 °F (Apr 2, 6:00 AM)31% (Apr 2, 6:00 PM)29.64 "Hg (Apr 14, 4:00 PM)
Average46 °F68%29.97 "Hg
* Reported Apr 1 3:00 PM — Apr 16 3:00 PM, Lódz, Weather by CustomWeather, © 2014

Note: Actual official high and low records may vary slightly from our data, if they occured in-between our weather recording intervals... More about our weather records

Advertising

Historic Weather Conditions — Data for Previous 24 hours

 ConditionsComfort  
Time TempWeatherWind HumidityBarometerVisibility
3:00 PM
Apr 16
46 °FOvercast.6 mph67%30.32 "Hg15 mi
2:00 PM46 °FOvercast.6 mph61%30.33 "Hg17 mi
1:00 PM44 °FOvercast.5 mph68%30.33 "Hg14 mi
12:00 PM42 °FOvercast.5 mph72%30.33 "Hg14 mi
11:00 AM40 °FOvercast.5 mph78%30.32 "Hg16 mi
10:00 AM39 °FOvercast.5 mph82%30.31 "Hg16 mi
9:00 AM38 °FOvercast.5 mph85%30.29 "Hg10 mi
8:00 AM37 °FOvercast.5 mph86%30.27 "Hg11 mi
7:00 AM37 °FLow clouds.5 mph88%30.26 "Hg7 mi
6:00 AM36 °FLow clouds.6 mph88%30.24 "Hg10 mi
5:00 AM36 °FLow clouds.6 mph88%30.20 "Hg10 mi
4:00 AM38 °FLow clouds.6 mph88%30.18 "Hg12 mi
3:00 AM38 °FOvercast.6 mph87%30.16 "Hg16 mi
2:00 AM40 °FOvercast.5 mph87%30.14 "Hg12 mi
11:00 PM
Apr 15
41 °FPassing clouds.5 mph88%30.08 "Hg14 mi
10:00 PM42 °FPassing clouds.3 mph84%30.06 "Hg12 mi
9:00 PM42 °FPassing clouds.2 mph84%30.04 "Hg12 mi
8:00 PM44 °FPassing clouds.5 mph78%30.00 "Hg17 mi
7:00 PM45 °FPartly sunny.5 mph69%29.98 "Hg19 mi
6:00 PM47 °FPartly sunny.7 mph64%29.96 "Hg16 mi
5:00 PM48 °FPartly sunny.6 mph61%29.93 "Hg15 mi
4:00 PM52 °FOvercast.6 mph54%29.89 "Hg11 mi
Weather by CustomWeather, © 2014

See weather overview